Location: DARK SKY Beskydy - Park tmavé oblohy, www.darkskybeskydy.cz
(49.4926°N, 18.5016°E)
Time: 03:02:35
(UTC+01:00)

N. Korean satellite - Pass Details

Date: 07 December 2022
Orbit: 407 x 442 km, 97.3° (Epoch: 05 February)

Event Time Altitude Azimuth Distance (km) Brightness Sun altitude
Rises 05:35:25 0° 8° (N) 2,515 10.1 -17.3°
Reaches altitude 10° 05:37:31 10° 3° (N) 1,628 9.1 -17.0°
Maximum altitude 05:40:54 48° 288° (WNW) 611 6.6 -16.4°
Drops below altitude 10° 05:44:12 10° 213° (SSW) 1,589 9.0 -15.9°
Sets 05:46:15 0° 208° (SSW) 2,447 10.0 -15.6°
